Overview Statistics Trail Chart Weather Telemetry Raw packets
 

This is the latest recevied weather packets stored in our database for station/object SR8WXL-13. If no packets are shown the sender has not sent any weather packets the latest 10 day(s).

<< 10 11 12 13 14 15 16 >>
Time Temp. Humidity Pressure Rain* Wind** Luminosity Snow
1788413999 12.78° C 97% 1034.5 hPa 1.02 mm - - -
1788413224 12.78° C 95% 1034.1 hPa 1.02 mm - - -
1788412428 12.78° C 94% 1034.3 hPa 0.25 mm - - -
1788411579 12.78° C 92% 1034.4 hPa 0.25 mm - - -
1788410773 12.78° C 89% 1034.4 hPa 0 mm - - -
1788410034 12.78° C 85% 1033.6 hPa 0 mm - - -
1788409279 12.78° C 87% 1033.6 hPa 0 mm - - -
1788408404 12.78° C 88% 1033.5 hPa 0 mm - - -
1788407688 12.22° C 90% 1033.5 hPa 0 mm - - -
1788406964 12.22° C 91% 1033.4 hPa 0 mm - - -
1788406129 12.22° C 92% 1033.5 hPa 0 mm - - -
1788405279 11.11° C 92% 1033.4 hPa 0 mm - - -
1788404443 12.22° C 91% 1033.8 hPa 0 mm - - -
1788403708 12.22° C 90% 1033.9 hPa 0 mm - - -
1788402933 12.22° C 91% 1033.6 hPa 0 mm - - -
1788402164 12.22° C 92% 1033.7 hPa 0 mm - - -
1788401264 11.11° C 92% 1033.5 hPa 0 mm - - -
1788400424 12.22° C 90% 1033.9 hPa 0 mm - - -
1788399623 12.78° C 90% 1033.7 hPa 0 mm - - -
1788398779 12.78° C 89% 1034 hPa 0 mm - - -
1788398058 12.78° C 88% 1034.1 hPa 0 mm - - -
1788397283 12.78° C 89% 1034.4 hPa 0 mm - - -
1788396498 12.78° C 91% 1034 hPa 0 mm - - -
1788395593 12.22° C 90% 1034.4 hPa 0 mm - - -
1788394868 12.78° C 91% 1034.4 hPa 0 mm - - -

* Rain latest hour (hover to see other rain measurements)
** Current wind speed in m/s (hover to see current wind gust speed)